Volver al catálogo

STARLINK-34276

ActivoComunicacionesVLEO
NORAD 64263·PAYLOAD·🇺🇸 United States

Lanzado Jun 4, 2025 desde Vandenberg Space Force Base

Loading…

Próximos Pases (próximas 24 horas)

TLE

ActualizadoSource: CelesTrak SupGP

Época: Sep 15, 2026, 03:10 UTC

1 64263C 25120H   26258.13243056  .00037987  00000+0  12214-2 0  2581
2 64263  53.1599 315.4563 0001283  90.2184 101.0818 15.31686925    16

Sigue STARLINK-34276 en tiempo real con AllMySat

Download on the App Store